THORAD DELTA 1 R/B(2), 9330

Orbit data source: Space-Track

THORAD DELTA 1 R/B(2), 9330 is space debris in HEO originally from a launch on Thu, 19 Dec 1974 UTC launched from the Air Force Eastern Test Range (AFETR). Debris objects in space refer to the collection of defunct objects orbiting the Earth. Examples of debris include non-operational satellites, rocket bodies, and fragments generated from explosions, collisions, or faulty payload assembly.

Loading next visibility...
Identifier
9330, 1974-101G
Orbit
HEO
Country
Flag of USUS
Related business
Manufacturer
Thiokol/TE
Mission
Spacecraft
Bus & Motor
STAR 37, Unknown motor
Mass
~83 kg wet, 83 kg dry
Launch date (UTC)
1974-12-19 (51 years ago)
Launch vehicle
Unknown
Launch site
Air Force Eastern Test Range (AFETR)
Object type
Payload
Rocket body
Debris
Shape & HBR
Unknown
Radar Cross Section
Large (>1 m²)

Expand to show TLE details & history
Last TLE update: 13 hours ago

TLE from 13 hours ago
0 THORAD DELTA 1 R/B(2)
1 09330U 74101G   25290.72684690  .00000239  00000-0  85699-3 0  9992
2 09330  13.0954  51.2361 7186296  92.3159 343.8939  2.31124519413437
Epoch: 2025-10-17T17:26Z
TLE epoch observation values (Epoch: 2025-10-17T17:26:39.572Z)
Latitude
0.00001°
Longitude
123.05653°
Altitude
5,685.721 km
Speed
7.041 km/s
True Right ascension
03h 24m 45s
True Declination
0° 00' 00"
Sunlit
Object was in full shadow at epoch
Visualization orbit readout
Latitude
Unknown
Longitude
Unknown
Altitude
Unknown
Speed
Unknown
Apparent Right ascension
Unknown
Apparent Declination
Unknown
Sunlit
N/A
Visualization observer readout
Local Sidereal Time
01:30:27
Azimuth
Unknown
Elevation
Unknown
Doppler factor
Unknown
Orbital elements
Apogee altitude
35,159.676 km
Perigee altitude
422.346 km
Semi-major axis
24,169.148 km
Eccentricity
0.71863
Inclination
13.0954°
RAAN
51.2361°
Arg. of periapsis
92.3159°
True anomaly
268.02791°
Mean anomaly
343.8939°
Eccentric anomaly
314.55284°
Mean motion
0.57763 °/min
Orbital period
623.23 mins
BSTAR
0.00085699
Loading maneuver chart data...
Computing Atmospheric mass density...
Loading historical data...
Loading historical data...
Loading historical data...
Loading historical data...
Loading historical data...
Loading historical data...
Loading historical data...

Documentation

Showing up to 5 results
|